sat.trackr.live / text

‹ back to catalog

FARADAY_PHOENIX

NORAD 48924 · 2021-059AX

PAYLOAD ACTIVE UNKNOWN

§ Identity

Operator
Country
UK
Launch date
2021-06-30
Launch site
AFETR
Launch vehicle
Mass (kg)
RCS (m²)

External: N2YO · Heavens-Above · Gunter

§ Orbital elements

Epoch: 2026-08-18T05:40:44.791392Z

Period
87.90 min
Inclination
97.6371°
Eccentricity
0.0011721
Mean motion
16.38155079 rev/d
Perigee alt
163.0 km
Apogee alt
178.4 km
Semi-major
6,548.9 km
B*
5.6717e-4
RAAN
76.5308°
Arg perigee
280.5759°
Mean anomaly
79.4219°
Rev number
28,753

§ Raw data

FARADAY_PHOENIX1 48924U 21059AX  26230.23662953  .05800316  26793-5  56717-3 0  99972 48924  97.6371  76.5308 0011721 280.5759  79.4219 16.38155079287531

JSON: /api/v1/satellites/48924 · /tle

For live sub-satellite position, see the globe view (requires WebGL).

§ Visibility from observer

Set your observer location to see the next 7 days of passes ≥ 10°. The values pass through the URL so the page stays shareable.

No JS? Fill the form by hand. The geolocation button needs JavaScript.

§ Radio — SatNOGS DB

ModeDescriptionDownlinkUplink
FSK AX.100 Mode 5 Mode U - FSK 9k6 401.150 MHz

1 transmitter · refreshed weekly from db.satnogs.org